(706) 295-7835

For Pilots

METAR

KRMG 211753Z AUTO 06006KT 10SM SCT050 32/18 A2994 RMK AO2 SLP129 T03170183 10317 20167 58016

Location & Communications

Get detailed information about the airport, provided by AirNav.

Pilot Services

We have fuel services, on-site repair and maintenance, 24-hour security and more.

Fuel Points

Russell Regional Airport is a Shell Aviation merchant and is proud to participate in the Shell Aero Class Rewards program!

Today's Fuel Prices

Jet A $4.98 / gallon
AvGas (100LL) $4.65 / gallon
Self Serve AvGas $4.27 / gallon
Learn about fuel points program